Time,TemperatureF,DewpointF,PressureIn,WindDirection,WindDirectionDegrees,WindSpeedMPH,WindSpeedGustMPH,Humidity,HourlyPrecipIn,Conditions,Clouds,dailyrainin,SolarRadiationWatts/m^2,SoftwareType,DateUTC
2013-04-23 00:00:00,61.7,53.0,30.01,ESE,103,0.0,2.0,73,0.00,,---,0.00,0.00,VWS V14.00,2013-04-23 05:00:00,
2013-04-23 00:01:00,61.7,53.0,30.01,East,100,0.0,2.0,73,0.00,,---,0.00,0.00,VWS V14.00,2013-04-23 05:01:00,
2013-04-23 00:06:00,61.7,53.0,30.01,ESE,108,0.0,2.0,73,0.00,,---,0.00,0.00,VWS V14.00,2013-04-23 05:06:00,
2013-04-23 00:11:00,61.7,53.0,30.01,ESE,106,0.0,3.0,73,0.00,,---,0.00,0.00,VWS V14.00,2013-04-23 05:11:00,
2013-04-23 00:16:00,61.7,53.0,30.01,ESE,106,0.0,3.0,73,0.00,,---,0.00,0.00,VWS V14.00,2013-04-23 05:16:00,
2013-04-23 00:21:00,61.7,53.0,30.02,ESE,106,0.0,3.0,73,0.00,,---,0.00,0.00,VWS V14.00,2013-04-23 05:21:00,
2013-04-23 00:26:00,61.6,52.9,30.02,ESE,112,0.0,3.0,73,0.00,,---,0.00,0.00,VWS V14.00,2013-04-23 05:26:00,
2013-04-23 00:30:00,61.6,52.9,30.02,ESE,112,0.0,3.0,73,0.00,,---,0.00,0.00,VWS V14.00,2013-04-23 05:30:00,
2013-04-23 00:31:00,61.6,52.9,30.02,ESE,112,0.0,0.0,73,0.00,,---,0.00,0.00,VWS V14.00,2013-04-23 05:31:00,
2013-04-23 00:36:00,61.5,52.8,30.02,ESE,112,0.0,0.0,73,0.00,,---,0.00,0.00,VWS V14.00,2013-04-23 05:36:00,
2013-04-23 00:41:00,61.4,53.0,30.02,ESE,112,0.0,0.0,74,0.00,,---,0.00,0.00,VWS V14.00,2013-04-23 05:41:00,
2013-04-23 00:46:00,61.3,53.0,30.02,ESE,112,0.0,0.0,74,0.00,,---,0.00,0.00,VWS V14.00,2013-04-23 05:46:00,
2013-04-23 00:51:00,61.2,52.9,30.02,ESE,113,0.0,0.0,74,0.00,,---,0.00,0.00,VWS V14.00,2013-04-23 05:51:00,
2013-04-23 00:56:00,61.1,53.1,30.02,ESE,113,0.0,0.0,75,0.00,,---,0.00,0.00,VWS V14.00,2013-04-23 05:56:00,
2013-04-23 01:00:00,61.1,53.1,30.02,ESE,113,0.0,0.0,75,0.00,,---,0.00,0.00,VWS V14.00,2013-04-23 06:00:00,
2013-04-23 01:01:00,61.0,53.0,30.01,ESE,113,0.0,1.0,75,0.00,,---,0.00,0.00,VWS V14.00,2013-04-23 06:01:00,
2013-04-23 01:06:00,60.9,52.9,30.01,ESE,113,0.0,1.0,75,0.00,,---,0.00,0.00,VWS V14.00,2013-04-23 06:06:00,
2013-04-23 01:11:00,60.8,53.2,30.00,ESE,113,0.0,1.0,76,0.00,,---,0.00,0.00,VWS V14.00,2013-04-23 06:11:00,
2013-04-23 01:16:00,60.8,53.2,30.00,SE,142,0.0,5.0,76,0.00,,---,0.00,0.00,VWS V14.00,2013-04-23 06:16:00,
2013-04-23 01:21:00,60.7,53.5,30.00,SE,138,0.0,5.0,77,0.00,,---,0.00,0.00,VWS V14.00,2013-04-23 06:21:00,
2013-04-23 01:26:00,60.6,53.4,30.00,ESE,123,0.0,5.0,77,0.00,,---,0.00,0.00,VWS V14.00,2013-04-23 06:26:00,
2013-04-23 01:30:00,60.6,53.4,30.00,ESE,123,0.0,5.0,77,0.00,,---,0.00,0.00,VWS V14.00,2013-04-23 06:30:00,
2013-04-23 01:31:00,60.6,53.4,30.00,SE,124,0.0,0.0,77,0.00,,---,0.00,0.00,VWS V14.00,2013-04-23 06:31:00,
2013-04-23 01:36:00,60.6,53.4,30.00,ESE,119,0.0,2.0,77,0.00,,---,0.00,0.00,VWS V14.00,2013-04-23 06:36:00,
2013-04-23 01:41:00,60.5,53.3,30.00,ESE,119,0.0,2.0,77,0.00,,---,0.00,0.00,VWS V14.00,2013-04-23 06:41:00,
2013-04-23 01:46:00,60.5,53.6,30.00,East,100,0.0,3.0,78,0.00,,---,0.00,0.00,VWS V14.00,2013-04-23 06:46:00,
2013-04-23 01:51:00,60.4,53.5,30.00,ESE,111,0.0,3.0,78,0.00,,---,0.00,0.00,VWS V14.00,2013-04-23 06:51:00,
2013-04-23 01:56:00,60.5,53.6,30.00,ESE,114,0.0,3.0,78,0.00,,---,0.00,0.00,VWS V14.00,2013-04-23 06:56:00,
2013-04-23 02:00:00,60.5,53.6,30.00,ESE,114,0.0,3.0,78,0.00,,---,0.00,0.00,VWS V14.00,2013-04-23 07:00:00,
2013-04-23 02:01:00,60.4,53.5,29.99,ESE,114,0.0,0.0,78,0.00,,---,0.00,0.00,VWS V14.00,2013-04-23 07:01:00,
2013-04-23 02:06:00,60.4,53.9,29.99,SE,138,0.0,1.0,79,0.00,,---,0.00,0.00,VWS V14.00,2013-04-23 07:06:00,
2013-04-23 02:11:00,60.3,53.8,29.99,SE,135,0.0,1.0,79,0.00,,---,0.00,0.00,VWS V14.00,2013-04-23 07:11:00,
2013-04-23 02:16:00,60.2,53.7,29.99,SE,138,0.0,1.0,79,0.00,,---,0.00,0.00,VWS V14.00,2013-04-23 07:16:00,
2013-04-23 02:21:00,60.0,53.8,29.99,SE,140,0.0,1.0,80,0.00,,---,0.00,0.00,VWS V14.00,2013-04-23 07:21:00,
2013-04-23 02:26:00,60.0,53.8,29.99,SE,140,0.0,1.0,80,0.00,,---,0.00,0.00,VWS V14.00,2013-04-23 07:26:00,
2013-04-23 02:30:00,59.9,53.7,29.99,SE,140,0.0,1.0,80,0.00,,---,0.00,0.00,VWS V14.00,2013-04-23 07:30:00,
2013-04-23 02:31:00,59.9,54.1,29.99,SE,132,0.0,0.0,81,0.00,,---,0.00,0.00,VWS V14.00,2013-04-23 07:31:00,
2013-04-23 02:36:00,59.8,54.0,29.99,SE,132,0.0,0.0,81,0.00,,---,0.00,0.00,VWS V14.00,2013-04-23 07:36:00,
2013-04-23 02:41:00,59.8,54.0,29.99,SE,140,0.0,5.0,81,0.00,,---,0.00,0.00,VWS V14.00,2013-04-23 07:41:00,
2013-04-23 02:46:00,59.8,54.3,29.99,SSE,159,0.0,5.0,82,0.00,,---,0.00,0.00,VWS V14.00,2013-04-23 07:46:00,
2013-04-23 02:51:00,60.0,54.8,29.99,SSE,152,0.0,5.0,83,0.00,,---,0.00,0.00,VWS V14.00,2013-04-23 07:51:00,
2013-04-23 02:56:00,60.2,55.0,29.99,SSE,163,0.0,7.0,83,0.00,,---,0.00,0.00,VWS V14.00,2013-04-23 07:56:00,
2013-04-23 03:00:00,60.2,55.0,29.99,SE,133,0.0,7.0,83,0.00,,---,0.00,0.00,VWS V14.00,2013-04-23 08:00:00,
2013-04-23 03:01:00,60.3,55.1,29.98,SSE,159,0.0,3.0,83,0.00,,---,0.00,0.00,VWS V14.00,2013-04-23 08:01:00,
2013-04-23 03:06:00,60.5,55.3,29.98,SE,138,0.0,3.0,83,0.00,,---,0.00,0.00,VWS V14.00,2013-04-23 08:06:00,
2013-04-23 03:11:00,60.6,55.8,29.98,South,190,0.0,7.0,84,0.00,,---,0.00,0.00,VWS V14.00,2013-04-23 08:11:00,
2013-04-23 03:16:00,60.8,55.9,29.98,ESE,121,0.0,7.0,84,0.00,,---,0.00,0.00,VWS V14.00,2013-04-23 08:16:00,
2013-04-23 03:21:00,61.0,55.8,29.98,SE,145,0.0,7.0,83,0.00,,---,0.00,0.00,VWS V14.00,2013-04-23 08:21:00,
2013-04-23 03:26:00,61.1,56.2,29.99,SE,136,0.0,7.0,84,0.00,,---,0.00,0.00,VWS V14.00,2013-04-23 08:26:00,
2013-04-23 03:30:00,61.1,56.2,29.99,SE,135,0.0,7.0,84,0.00,,---,0.00,0.00,VWS V14.00,2013-04-23 08:30:00,
2013-04-23 03:31:00,61.2,56.3,29.99,SSE,161,2.0,9.0,84,0.00,,---,0.00,0.00,VWS V14.00,2013-04-23 08:31:00,
2013-04-23 03:36:00,61.4,56.5,29.98,SSE,164,3.0,9.0,84,0.00,,---,0.00,0.00,VWS V14.00,2013-04-23 08:36:00,
2013-04-23 03:41:00,61.5,56.6,29.98,SSE,148,5.0,9.0,84,0.00,,---,0.00,0.00,VWS V14.00,2013-04-23 08:41:00,
2013-04-23 03:46:00,61.6,56.4,29.98,SE,136,6.0,9.0,83,0.00,,---,0.00,0.00,VWS V14.00,2013-04-23 08:46:00,
2013-04-23 03:51:00,61.6,56.7,29.98,South,182,0.0,9.0,84,0.00,,---,0.00,0.00,VWS V14.00,2013-04-23 08:51:00,
2013-04-23 03:56:00,61.5,56.6,29.98,SSW,192,2.0,9.0,84,0.00,,---,0.00,0.00,VWS V14.00,2013-04-23 08:56:00,
2013-04-23 04:00:00,61.5,56.6,29.98,SE,144,0.0,9.0,84,0.00,,---,0.00,0.00,VWS V14.00,2013-04-23 09:00:00,
2013-04-23 04:01:00,61.6,56.7,29.99,South,188,6.0,10.0,84,0.00,,---,0.00,0.00,VWS V14.00,2013-04-23 09:01:00,
2013-04-23 04:06:00,61.6,56.7,29.99,SE,138,6.0,10.0,84,0.00,,---,0.00,0.00,VWS V14.00,2013-04-23 09:06:00,
2013-04-23 04:11:00,61.6,56.7,29.99,SE,134,0.0,10.0,84,0.00,,---,0.00,0.00,VWS V14.00,2013-04-23 09:11:00,
2013-04-23 04:16:00,61.5,56.6,29.99,SSE,159,5.0,10.0,84,0.00,,---,0.00,0.00,VWS V14.00,2013-04-23 09:16:00,
2013-04-23 04:21:00,61.5,57.0,29.99,SE,146,0.0,10.0,85,0.00,,---,0.00,0.00,VWS V14.00,2013-04-23 09:21:00,
2013-04-23 04:26:00,61.5,57.0,29.98,SSE,153,0.0,10.0,85,0.00,,---,0.00,0.00,VWS V14.00,2013-04-23 09:26:00,
2013-04-23 04:30:00,61.5,57.0,29.98,SE,144,0.0,10.0,85,0.00,,---,0.00,0.00,VWS V14.00,2013-04-23 09:30:00,
2013-04-23 04:31:00,61.5,57.0,29.98,SSE,148,0.0,0.0,85,0.00,,---,0.00,0.00,VWS V14.00,2013-04-23 09:31:00,
2013-04-23 04:36:00,61.4,56.9,29.98,SSE,149,0.0,6.0,85,0.00,,---,0.00,0.00,VWS V14.00,2013-04-23 09:36:00,
2013-04-23 04:41:00,61.4,56.9,29.98,SE,145,0.0,6.0,85,0.00,,---,0.00,0.00,VWS V14.00,2013-04-23 09:41:00,
2013-04-23 04:46:00,61.4,57.2,29.98,SE,131,0.0,6.0,86,0.00,,---,0.00,0.00,VWS V14.00,2013-04-23 09:46:00,
2013-04-23 04:51:00,61.5,57.3,29.98,SSE,148,7.0,10.0,86,0.00,,---,0.00,0.00,VWS V14.00,2013-04-23 09:51:00,
2013-04-23 04:56:00,61.6,57.4,29.98,SE,146,0.0,10.0,86,0.00,,---,0.00,0.00,VWS V14.00,2013-04-23 09:56:00,
2013-04-23 05:00:00,61.6,57.4,29.98,SE,144,4.0,10.0,86,0.00,,---,0.00,0.00,VWS V14.00,2013-04-23 10:00:00,
2013-04-23 05:01:00,61.6,57.4,29.98,South,176,4.0,8.0,86,0.00,,---,0.00,0.00,VWS V14.00,2013-04-23 10:01:00,
2013-04-23 05:06:00,61.7,57.5,29.98,SSE,161,0.0,10.0,86,0.00,,---,0.00,0.00,VWS V14.00,2013-04-23 10:06:00,
2013-04-23 05:11:00,61.8,57.6,29.99,SE,125,3.0,10.0,86,0.00,,---,0.00,0.00,VWS V14.00,2013-04-23 10:11:00,
2013-04-23 05:16:00,61.8,57.6,29.99,South,172,0.0,10.0,86,0.00,,---,0.00,0.00,VWS V14.00,2013-04-23 10:16:00,
2013-04-23 05:21:00,61.9,57.7,29.99,South,174,0.0,10.0,86,0.00,,---,0.00,0.00,VWS V14.00,2013-04-23 10:21:00,
2013-04-23 05:26:00,61.9,57.7,29.99,SSE,157,5.0,10.0,86,0.00,,---,0.00,0.00,VWS V14.00,2013-04-23 10:26:00,
2013-04-23 05:30:00,61.9,57.7,29.99,South,171,2.0,10.0,86,0.00,,---,0.00,0.00,VWS V14.00,2013-04-23 10:30:00,
2013-04-23 05:31:00,61.9,57.7,29.99,South,185,0.0,10.0,86,0.00,,---,0.00,0.00,VWS V14.00,2013-04-23 10:31:00,
2013-04-23 05:36:00,61.8,57.6,29.99,SE,144,0.0,10.0,86,0.00,,---,0.00,0.00,VWS V14.00,2013-04-23 10:36:00,
2013-04-23 05:41:00,61.8,57.6,29.99,SSE,162,3.0,10.0,86,0.00,,---,0.00,0.00,VWS V14.00,2013-04-23 10:41:00,
2013-04-23 05:46:00,61.7,57.5,29.99,South,184,0.0,10.0,86,0.00,,---,0.00,0.00,VWS V14.00,2013-04-23 10:46:00,
2013-04-23 05:51:00,61.6,57.4,29.99,South,187,5.0,10.0,86,0.00,,---,0.00,0.00,VWS V14.00,2013-04-23 10:51:00,
2013-04-23 05:56:00,61.4,57.5,29.99,SSE,159,0.0,10.0,87,0.00,,---,0.00,0.00,VWS V14.00,2013-04-23 10:56:00,
2013-04-23 06:00:00,61.4,57.5,29.99,ESE,123,0.0,10.0,87,0.00,,---,0.00,0.00,VWS V14.00,2013-04-23 11:00:00,
2013-04-23 06:01:00,61.3,57.4,29.98,South,178,0.0,5.0,87,0.00,,---,0.00,0.00,VWS V14.00,2013-04-23 11:01:00,
2013-04-23 06:06:00,61.2,57.3,29.98,SSE,151,0.0,5.0,87,0.00,,---,0.00,0.00,VWS V14.00,2013-04-23 11:06:00,
2013-04-23 06:11:00,61.0,57.4,29.98,SSE,148,0.0,5.0,88,0.00,,---,0.00,0.00,VWS V14.00,2013-04-23 11:11:00,
2013-04-23 06:16:00,60.9,57.3,29.98,SSE,156,0.0,5.0,88,0.00,,---,0.00,5.00,VWS V14.00,2013-04-23 11:16:00,
2013-04-23 06:21:00,60.9,57.3,29.99,SE,142,0.0,5.0,88,0.00,,---,0.00,9.00,VWS V14.00,2013-04-23 11:21:00,
2013-04-23 06:26:00,60.8,57.2,29.99,SE,146,0.0,6.0,88,0.00,,---,0.00,11.00,VWS V14.00,2013-04-23 11:26:00,
2013-04-23 06:30:00,60.8,57.5,29.99,SSE,158,0.0,6.0,89,0.00,,---,0.00,11.00,VWS V14.00,2013-04-23 11:30:00,
2013-04-23 06:31:00,60.7,57.4,29.99,SE,146,0.0,5.0,89,0.00,,---,0.00,16.00,VWS V14.00,2013-04-23 11:31:00,
2013-04-23 06:36:00,60.7,57.4,29.99,SSE,157,0.0,5.0,89,0.00,,---,0.00,23.00,VWS V14.00,2013-04-23 11:36:00,
2013-04-23 06:41:00,60.7,57.4,30.00,SSE,157,0.0,5.0,89,0.00,,---,0.00,33.00,VWS V14.00,2013-04-23 11:41:00,
2013-04-23 06:46:00,60.7,57.4,30.00,SE,133,0.0,5.0,89,0.00,,---,0.00,30.00,VWS V14.00,2013-04-23 11:46:00,
2013-04-23 06:51:00,60.8,57.5,30.00,SSE,165,0.0,8.0,89,0.00,,---,0.00,35.00,VWS V14.00,2013-04-23 11:51:00,
2013-04-23 06:56:00,60.8,57.8,29.99,South,178,0.0,8.0,90,0.00,,---,0.00,42.00,VWS V14.00,2013-04-23 11:56:00,
2013-04-23 07:00:00,60.8,57.8,29.99,South,169,0.0,8.0,90,0.00,,---,0.00,44.00,VWS V14.00,2013-04-23 12:00:00,
2013-04-23 07:01:00,60.8,57.8,30.00,SSE,167,0.0,7.0,90,0.00,,---,0.00,44.00,VWS V14.00,2013-04-23 12:01:00,
2013-04-23 07:06:00,60.9,58.0,30.00,South,185,0.0,7.0,90,0.00,,---,0.00,49.00,VWS V14.00,2013-04-23 12:06:00,
2013-04-23 07:10:00,60.9,58.0,30.00,SSE,148,0.0,7.0,90,0.00,,---,0.00,47.00,VWS V14.00,2013-04-23 12:10:00,
2013-04-23 07:15:00,60.9,58.0,30.00,ESE,120,0.0,7.0,90,0.00,,---,0.00,58.00,VWS V14.00,2013-04-23 12:15:00,
2013-04-23 07:20:00,61.0,58.0,30.01,SSE,166,0.0,9.0,90,0.00,,---,0.00,60.00,VWS V14.00,2013-04-23 12:20:00,
2013-04-23 07:25:00,61.1,58.2,30.01,South,186,6.0,10.0,90,0.00,,---,0.00,72.00,VWS V14.00,2013-04-23 12:25:00,
2013-04-23 07:30:00,61.1,58.2,30.01,South,175,6.0,7.0,90,0.00,,---,0.00,58.00,VWS V14.00,2013-04-23 12:30:00,
2013-04-23 07:35:00,61.2,58.9,30.01,SSE,161,0.0,12.0,92,0.00,,---,0.00,63.00,VWS V14.00,2013-04-23 12:35:00,
2013-04-23 07:40:00,61.2,58.2,30.01,South,171,0.0,12.0,90,0.00,,---,0.00,47.00,VWS V14.00,2013-04-23 12:40:00,
2013-04-23 07:45:00,61.2,58.2,30.01,SSE,156,6.0,12.0,90,0.00,,---,0.00,69.00,VWS V14.00,2013-04-23 12:45:00,
2013-04-23 07:50:00,61.3,58.7,30.01,SSE,161,2.0,12.0,91,0.00,,---,0.00,137.00,VWS V14.00,2013-04-23 12:50:00,
2013-04-23 07:55:00,61.4,58.8,30.02,SSW,198,5.0,12.0,91,0.00,,---,0.00,72.00,VWS V14.00,2013-04-23 12:55:00,
2013-04-23 08:00:00,61.5,58.8,30.02,SSE,166,3.0,10.0,91,0.00,,---,0.00,109.00,VWS V14.00,2013-04-23 13:00:00,
2013-04-23 08:05:00,61.6,59.0,30.02,South,186,5.0,10.0,91,0.00,,---,0.00,88.00,VWS V14.00,2013-04-23 13:05:00,
2013-04-23 08:10:00,61.7,58.7,30.02,SSE,167,6.0,14.0,90,0.00,,---,0.00,88.00,VWS V14.00,2013-04-23 13:10:00,
2013-04-23 08:15:00,61.8,59.2,30.02,SW,221,12.0,16.0,91,0.00,,---,0.00,47.00,VWS V14.00,2013-04-23 13:15:00,
2013-04-23 08:20:00,61.9,58.9,30.01,South,171,10.0,16.0,90,0.00,,---,0.00,83.00,VWS V14.00,2013-04-23 13:20:00,
2013-04-23 08:25:00,62.0,59.3,30.01,SSW,198,5.0,16.0,91,0.00,,---,0.00,76.00,VWS V14.00,2013-04-23 13:25:00,
2013-04-23 08:30:00,62.1,59.5,30.01,SSW,211,4.0,12.0,91,0.00,,---,0.00,84.00,VWS V14.00,2013-04-23 13:30:00,
2013-04-23 08:35:00,62.3,59.6,30.01,SSE,167,1.0,12.0,91,0.00,,---,0.00,102.00,VWS V14.00,2013-04-23 13:35:00,
2013-04-23 08:40:00,62.4,59.7,30.01,SSW,198,3.0,12.0,91,0.00,,---,0.00,97.00,VWS V14.00,2013-04-23 13:40:00,
2013-04-23 08:45:00,62.5,59.8,30.01,SSE,163,3.0,14.0,91,0.00,,---,0.00,111.00,VWS V14.00,2013-04-23 13:45:00,
2013-04-23 08:50:00,62.6,59.9,30.01,SSW,210,3.0,14.0,91,0.00,,---,0.00,104.00,VWS V14.00,2013-04-23 13:50:00,
2013-04-23 08:55:00,62.7,59.7,30.01,SSW,198,9.0,14.0,90,0.00,,---,0.00,123.00,VWS V14.00,2013-04-23 13:55:00,
2013-04-23 09:00:00,62.8,59.8,30.01,South,186,9.0,13.0,90,0.00,,---,0.00,127.00,VWS V14.00,2013-04-23 14:00:00,
2013-04-23 09:05:00,62.9,59.9,30.01,SSW,198,6.0,13.0,90,0.00,,---,0.00,137.00,VWS V14.00,2013-04-23 14:05:00,
2013-04-23 09:10:00,63.1,60.1,30.01,SSE,167,8.0,14.0,90,0.00,,---,0.00,148.00,VWS V14.00,2013-04-23 14:10:00,
2013-04-23 09:15:00,63.3,60.3,30.01,SE,146,6.0,14.0,90,0.00,,---,0.00,199.00,VWS V14.00,2013-04-23 14:15:00,
2013-04-23 09:20:00,63.6,60.3,30.01,South,171,2.0,14.0,89,0.00,,---,0.00,193.00,VWS V14.00,2013-04-23 14:20:00,
2013-04-23 09:25:00,63.8,60.5,30.01,SSE,157,6.0,14.0,89,0.00,,---,0.00,220.00,VWS V14.00,2013-04-23 14:25:00,
2013-04-23 09:30:00,64.1,60.5,30.01,SSW,203,4.0,11.0,88,0.00,,---,0.00,227.00,VWS V14.00,2013-04-23 14:30:00,
2013-04-23 09:35:00,64.4,60.8,30.01,South,177,7.0,14.0,88,0.00,,---,0.00,221.00,VWS V14.00,2013-04-23 14:35:00,
2013-04-23 09:40:00,64.6,61.0,30.01,SSW,198,0.0,14.0,88,0.00,,---,0.00,193.00,VWS V14.00,2013-04-23 14:40:00,
2013-04-23 09:45:00,64.8,60.8,30.01,SW,215,7.0,14.0,87,0.00,,---,0.00,137.00,VWS V14.00,2013-04-23 14:45:00,
2013-04-23 09:50:00,64.9,60.9,30.01,South,190,4.0,14.0,87,0.00,,---,0.00,171.00,VWS V14.00,2013-04-23 14:50:00,
2013-04-23 09:55:00,65.0,61.0,30.02,South,178,3.0,14.0,87,0.00,,---,0.00,128.00,VWS V14.00,2013-04-23 14:55:00,
2013-04-23 10:00:00,65.1,61.1,30.02,SSW,192,7.0,9.0,87,0.00,,---,0.00,128.00,VWS V14.00,2013-04-23 15:00:00,
2013-04-23 10:05:00,65.2,60.9,30.02,SW,231,8.0,12.0,86,0.00,,---,0.00,199.00,VWS V14.00,2013-04-23 15:05:00,
2013-04-23 10:10:00,65.3,61.0,30.02,SSW,203,5.0,12.0,86,0.00,,---,0.00,156.00,VWS V14.00,2013-04-23 15:10:00,
2013-04-23 10:15:00,65.5,61.2,30.02,WSW,239,5.0,12.0,86,0.00,,---,0.00,148.00,VWS V14.00,2013-04-23 15:15:00,
2013-04-23 10:20:00,65.7,61.1,30.02,South,178,4.0,12.0,85,0.00,,---,0.00,149.00,VWS V14.00,2013-04-23 15:20:00,
2013-04-23 10:25:00,65.8,61.2,30.03,South,175,8.0,12.0,85,0.00,,---,0.00,151.00,VWS V14.00,2013-04-23 15:25:00,
2013-04-23 10:30:00,66.0,61.4,30.03,SSW,196,5.0,9.0,85,0.00,,---,0.00,165.00,VWS V14.00,2013-04-23 15:30:00,
2013-04-23 10:35:00,66.1,61.1,30.03,SSW,207,5.0,9.0,84,0.00,,---,0.00,265.00,VWS V14.00,2013-04-23 15:35:00,
2013-04-23 10:40:00,66.4,61.4,30.03,SSW,208,0.0,9.0,84,0.00,,---,0.00,181.00,VWS V14.00,2013-04-23 15:40:00,
2013-04-23 10:45:00,66.6,61.6,30.02,SW,217,0.0,11.0,84,0.00,,---,0.00,149.00,VWS V14.00,2013-04-23 15:45:00,
2013-04-23 10:50:00,66.6,61.3,30.02,SSW,208,4.0,11.0,83,0.00,,---,0.00,116.00,VWS V14.00,2013-04-23 15:50:00,
2013-04-23 10:55:00,66.5,61.2,30.02,WSW,250,4.0,11.0,83,0.00,,---,0.00,100.00,VWS V14.00,2013-04-23 15:55:00,
2013-04-23 11:00:00,66.4,61.1,30.02,SSW,203,2.0,6.0,83,0.00,,---,0.00,127.00,VWS V14.00,2013-04-23 16:00:00,
2013-04-23 11:05:00,66.4,61.1,30.02,South,188,0.0,9.0,83,0.00,,---,0.00,95.00,VWS V14.00,2013-04-23 16:05:00,
2013-04-23 11:10:00,66.3,61.3,30.02,SSW,197,3.0,9.0,84,0.00,,---,0.00,125.00,VWS V14.00,2013-04-23 16:10:00,
2013-04-23 11:15:00,66.2,61.2,30.02,SSW,206,4.0,9.0,84,0.00,,---,0.00,121.00,VWS V14.00,2013-04-23 16:15:00,
2013-04-23 11:20:00,66.2,61.2,30.03,South,176,6.0,13.0,84,0.00,,---,0.00,243.00,VWS V14.00,2013-04-23 16:20:00,
2013-04-23 11:25:00,66.4,61.4,30.02,SSE,161,0.0,13.0,84,0.00,,---,0.00,237.00,VWS V14.00,2013-04-23 16:25:00,
2013-04-23 11:30:00,66.7,61.7,30.02,South,184,4.0,10.0,84,0.00,,---,0.00,176.00,VWS V14.00,2013-04-23 16:30:00,
2013-04-23 11:35:00,66.7,61.4,30.02,South,177,6.0,12.0,83,0.00,,---,0.00,160.00,VWS V14.00,2013-04-23 16:35:00,
2013-04-23 11:40:00,66.8,61.8,30.02,South,190,0.0,12.0,84,0.00,,---,0.00,239.00,VWS V14.00,2013-04-23 16:40:00,
2013-04-23 11:45:00,67.0,62.0,30.02,South,171,0.0,12.0,84,0.00,,---,0.00,345.00,VWS V14.00,2013-04-23 16:45:00,
2013-04-23 11:50:00,67.3,62.0,30.02,SSE,163,4.0,12.0,83,0.00,,---,0.00,295.00,VWS V14.00,2013-04-23 16:50:00,
2013-04-23 11:55:00,67.6,61.9,30.02,SSE,165,5.0,12.0,82,0.00,,---,0.00,260.00,VWS V14.00,2013-04-23 16:55:00,
2013-04-23 12:00:00,67.7,61.7,30.02,South,185,4.0,16.0,81,0.00,,---,0.00,346.00,VWS V14.00,2013-04-23 17:00:00,
2013-04-23 12:05:00,67.9,61.9,30.02,SSW,205,4.0,16.0,81,0.00,,---,0.00,346.00,VWS V14.00,2013-04-23 17:05:00,
2013-04-23 12:10:00,68.1,62.1,30.01,SSE,163,2.0,16.0,81,0.00,,---,0.00,411.00,VWS V14.00,2013-04-23 17:10:00,
2013-04-23 12:15:00,68.4,61.6,30.01,South,189,6.0,16.0,79,0.00,,---,0.00,496.00,VWS V14.00,2013-04-23 17:15:00,
2013-04-23 12:20:00,68.6,62.2,30.01,SSE,162,2.0,16.0,80,0.00,,---,0.00,473.00,VWS V14.00,2013-04-23 17:20:00,
2013-04-23 12:25:00,68.9,62.5,30.00,SSE,164,10.0,16.0,80,0.00,,---,0.00,439.00,VWS V14.00,2013-04-23 17:25:00,
2013-04-23 12:30:00,69.2,62.4,30.00,SSE,155,6.0,13.0,79,0.00,,---,0.00,418.00,VWS V14.00,2013-04-23 17:30:00,
2013-04-23 12:35:00,69.4,62.6,29.99,South,169,10.0,13.0,79,0.00,,---,0.00,1102.00,VWS V14.00,2013-04-23 17:35:00,
2013-04-23 12:40:00,70.1,62.6,29.99,SSE,156,10.0,14.0,77,0.00,,---,0.00,888.00,VWS V14.00,2013-04-23 17:40:00,
2013-04-23 12:45:00,70.5,62.2,29.99,SSE,157,8.0,18.0,75,0.00,,---,0.00,626.00,VWS V14.00,2013-04-23 17:45:00,
2013-04-23 12:50:00,70.8,62.5,29.99,SSW,200,7.0,18.0,75,0.00,,---,0.00,596.00,VWS V14.00,2013-04-23 17:50:00,
2013-04-23 12:55:00,71.3,63.0,29.99,SSE,167,3.0,18.0,75,0.00,,---,0.00,710.00,VWS V14.00,2013-04-23 17:55:00,
2013-04-23 13:00:00,71.6,62.9,29.99,SSW,201,6.0,15.0,74,0.00,,---,0.00,650.00,VWS V14.00,2013-04-23 18:00:00,
2013-04-23 13:05:00,71.7,62.2,29.98,SSE,166,6.0,25.0,72,0.00,,---,0.00,621.00,VWS V14.00,2013-04-23 18:05:00,
2013-04-23 13:10:00,71.6,62.1,29.98,SSW,200,6.0,25.0,72,0.00,,---,0.00,731.00,VWS V14.00,2013-04-23 18:10:00,
2013-04-23 13:15:00,71.9,62.0,29.98,South,184,7.0,25.0,71,0.00,,---,0.00,464.00,VWS V14.00,2013-04-23 18:15:00,
2013-04-23 13:20:00,72.0,62.9,29.97,SE,132,6.0,25.0,73,0.00,,---,0.00,1058.00,VWS V14.00,2013-04-23 18:20:00,
2013-04-23 13:25:00,72.4,63.7,29.97,South,180,1.0,25.0,74,0.00,,---,0.00,519.00,VWS V14.00,2013-04-23 18:25:00,
2013-04-23 13:30:00,72.9,62.5,29.97,SE,138,12.0,12.0,70,0.00,,---,0.00,661.00,VWS V14.00,2013-04-23 18:30:00,
2013-04-23 13:35:00,73.0,62.2,29.97,SSE,148,10.0,17.0,69,0.00,,---,0.00,376.00,VWS V14.00,2013-04-23 18:35:00,
2013-04-23 13:40:00,72.5,61.8,29.97,SSE,160,0.0,17.0,69,0.00,,---,0.00,271.00,VWS V14.00,2013-04-23 18:40:00,
2013-04-23 13:45:00,72.3,62.0,29.97,South,188,12.0,18.0,70,0.00,,---,0.00,283.00,VWS V14.00,2013-04-23 18:45:00,
2013-04-23 13:50:00,71.9,62.0,29.97,South,184,0.0,18.0,71,0.00,,---,0.00,258.00,VWS V14.00,2013-04-23 18:50:00,
2013-04-23 13:55:00,72.0,62.9,29.97,SE,140,4.0,18.0,73,0.00,,---,0.00,415.00,VWS V14.00,2013-04-23 18:55:00,
2013-04-23 14:00:00,72.6,62.3,29.96,South,169,0.0,12.0,70,0.00,,---,0.00,1034.00,VWS V14.00,2013-04-23 19:00:00,
2013-04-23 14:05:00,73.0,62.2,29.96,SE,142,6.0,15.0,69,0.00,,---,0.00,417.00,VWS V14.00,2013-04-23 19:05:00,
2013-04-23 14:10:00,73.0,62.2,29.96,ESE,105,4.0,15.0,69,0.00,,---,0.00,255.00,VWS V14.00,2013-04-23 19:10:00,
2013-04-23 14:15:00,72.6,61.9,29.96,SW,236,5.0,18.0,69,0.00,,---,0.00,278.00,VWS V14.00,2013-04-23 19:15:00,
2013-04-23 14:20:00,72.2,61.9,29.96,South,175,4.0,18.0,70,0.00,,---,0.00,244.00,VWS V14.00,2013-04-23 19:20:00,
2013-04-23 14:25:00,72.0,62.1,29.96,SSE,147,10.0,18.0,71,0.00,,---,0.00,410.00,VWS V14.00,2013-04-23 19:25:00,
2013-04-23 14:30:00,72.1,62.6,29.96,SSE,164,0.0,13.0,72,0.00,,---,0.00,322.00,VWS V14.00,2013-04-23 19:30:00,
2013-04-23 14:35:00,72.2,62.3,29.95,SSW,199,3.0,15.0,71,0.00,,---,0.00,346.00,VWS V14.00,2013-04-23 19:35:00,
2013-04-23 14:40:00,72.4,62.5,29.95,SW,227,7.0,16.0,71,0.00,,---,0.00,371.00,VWS V14.00,2013-04-23 19:40:00,
2013-04-23 14:45:00,72.7,62.4,29.95,SW,220,9.0,16.0,70,0.00,,---,0.00,506.00,VWS V14.00,2013-04-23 19:45:00,
2013-04-23 14:50:00,73.1,63.2,29.95,SSW,212,1.0,16.0,71,0.00,,---,0.00,591.00,VWS V14.00,2013-04-23 19:50:00,
2013-04-23 14:55:00,73.3,62.1,29.94,SSW,195,5.0,19.0,68,0.00,,---,0.00,401.00,VWS V14.00,2013-04-23 19:55:00,
2013-04-23 15:00:00,73.2,62.8,29.94,SW,224,12.0,21.0,70,0.00,,---,0.00,355.00,VWS V14.00,2013-04-23 20:00:00,
2013-04-23 15:05:00,73.7,63.3,29.94,SSW,204,14.0,21.0,70,0.00,,---,0.00,902.00,VWS V14.00,2013-04-23 20:05:00,
2013-04-23 15:10:00,74.2,63.8,29.93,South,174,9.0,21.0,70,0.00,,---,0.00,919.00,VWS V14.00,2013-04-23 20:10:00,
2013-04-23 15:15:00,74.4,63.2,29.93,SSE,159,0.0,21.0,68,0.00,,---,0.00,875.00,VWS V14.00,2013-04-23 20:15:00,
2013-04-23 15:20:00,74.7,63.5,29.93,SSW,194,4.0,21.0,68,0.00,,---,0.00,867.00,VWS V14.00,2013-04-23 20:20:00,
2013-04-23 15:25:00,74.8,63.5,29.93,SW,218,12.0,21.0,68,0.00,,---,0.00,867.00,VWS V14.00,2013-04-23 20:25:00,
2013-04-23 15:30:00,75.0,62.9,29.92,South,190,7.0,18.0,66,0.00,,---,0.00,858.00,VWS V14.00,2013-04-23 20:30:00,
2013-04-23 15:35:00,74.9,63.6,29.92,SE,146,7.0,18.0,68,0.00,,---,0.00,763.00,VWS V14.00,2013-04-23 20:35:00,
2013-04-23 15:40:00,75.1,63.8,29.92,SSE,158,0.0,18.0,68,0.00,,---,0.00,510.00,VWS V14.00,2013-04-23 20:40:00,
2013-04-23 15:45:00,75.4,62.8,29.91,SSE,167,3.0,18.0,65,0.00,,---,0.00,800.00,VWS V14.00,2013-04-23 20:45:00,
2013-04-23 15:50:00,75.3,63.2,29.91,SE,138,1.0,18.0,66,0.00,,---,0.00,290.00,VWS V14.00,2013-04-23 20:50:00,
2013-04-23 15:55:00,74.9,62.8,29.91,SE,142,4.0,18.0,66,0.00,,---,0.00,325.00,VWS V14.00,2013-04-23 20:55:00,
2013-04-23 16:00:00,74.5,62.4,29.91,SSW,204,4.0,11.0,66,0.00,,---,0.00,265.00,VWS V14.00,2013-04-23 21:00:00,
2013-04-23 16:05:00,74.6,62.9,29.91,SSW,203,5.0,17.0,67,0.00,,---,0.00,722.00,VWS V14.00,2013-04-23 21:05:00,
2013-04-23 16:10:00,74.8,63.5,29.90,SSW,192,5.0,17.0,68,0.00,,---,0.00,318.00,VWS V14.00,2013-04-23 21:10:00,
2013-04-23 16:15:00,75.1,63.4,29.90,SSE,161,4.0,17.0,67,0.00,,---,0.00,445.00,VWS V14.00,2013-04-23 21:15:00,
2013-04-23 16:20:00,75.3,63.6,29.90,South,173,3.0,17.0,67,0.00,,---,0.00,738.00,VWS V14.00,2013-04-23 21:20:00,
2013-04-23 16:25:00,75.7,64.0,29.90,SE,134,2.0,17.0,67,0.00,,---,0.00,726.00,VWS V14.00,2013-04-23 21:25:00,
2013-04-23 16:30:00,76.1,64.8,29.90,SE,145,5.0,12.0,68,0.00,,---,0.00,589.00,VWS V14.00,2013-04-23 21:30:00,
2013-04-23 16:35:00,76.1,64.4,29.90,South,169,6.0,13.0,67,0.00,,---,0.00,302.00,VWS V14.00,2013-04-23 21:35:00,
2013-04-23 16:40:00,75.9,64.2,29.89,South,190,6.0,13.0,67,0.00,,---,0.00,336.00,VWS V14.00,2013-04-23 21:40:00,
2013-04-23 16:45:00,75.7,64.0,29.89,South,169,13.0,14.0,67,0.00,,---,0.00,608.00,VWS V14.00,2013-04-23 21:45:00,
2013-04-23 16:50:00,75.6,63.9,29.89,South,188,11.0,14.0,67,0.00,,---,0.00,223.00,VWS V14.00,2013-04-23 21:50:00,
2013-04-23 16:55:00,75.5,64.6,29.89,South,175,5.0,14.0,69,0.00,,---,0.00,538.00,VWS V14.00,2013-04-23 21:55:00,
2013-04-23 17:00:00,75.7,64.0,29.89,SSE,152,7.0,13.0,67,0.00,,---,0.00,218.00,VWS V14.00,2013-04-23 22:00:00,
2013-04-23 17:05:00,75.4,63.7,29.89,South,188,6.0,13.0,67,0.00,,---,0.00,206.00,VWS V14.00,2013-04-23 22:05:00,
2013-04-23 17:10:00,74.9,63.2,29.89,South,169,0.0,13.0,67,0.00,,---,0.00,176.00,VWS V14.00,2013-04-23 22:10:00,
2013-04-23 17:15:00,74.8,63.5,29.89,South,188,2.0,14.0,68,0.00,,---,0.00,206.00,VWS V14.00,2013-04-23 22:15:00,
2013-04-23 17:20:00,74.7,63.9,29.89,SSW,192,0.0,14.0,69,0.00,,---,0.00,148.00,VWS V14.00,2013-04-23 22:20:00,
2013-04-23 17:25:00,74.6,63.8,29.89,SSE,160,0.0,14.0,69,0.00,,---,0.00,306.00,VWS V14.00,2013-04-23 22:25:00,
2013-04-23 17:30:00,74.6,64.2,29.89,SSE,166,2.0,5.0,70,0.00,,---,0.00,167.00,VWS V14.00,2013-04-23 22:30:00,
2013-04-23 17:35:00,74.8,64.0,29.89,SSE,167,0.0,13.0,69,0.00,,---,0.00,132.00,VWS V14.00,2013-04-23 22:35:00,
2013-04-23 17:40:00,74.8,64.0,29.89,SSE,151,0.0,13.0,69,0.00,,---,0.00,271.00,VWS V14.00,2013-04-23 22:40:00,
2013-04-23 17:45:00,74.7,64.3,29.88,SE,136,4.0,13.0,70,0.00,,---,0.00,225.00,VWS V14.00,2013-04-23 22:45:00,
2013-04-23 17:50:00,74.9,64.5,29.88,South,169,0.0,13.0,70,0.00,,---,0.00,309.00,VWS V14.00,2013-04-23 22:50:00,
2013-04-23 17:55:00,74.9,64.1,29.88,SSW,199,4.0,13.0,69,0.00,,---,0.00,269.00,VWS V14.00,2013-04-23 22:55:00,
2013-04-23 18:00:00,74.9,64.1,29.88,South,180,0.0,9.0,69,0.00,,---,0.00,139.00,VWS V14.00,2013-04-23 23:00:00,
2013-04-23 18:05:00,74.9,64.1,29.88,South,191,2.0,10.0,69,0.00,,---,0.00,172.00,VWS V14.00,2013-04-23 23:05:00,
2013-04-23 18:10:00,74.8,64.0,29.88,SSE,159,10.0,12.0,69,0.00,,---,0.00,262.00,VWS V14.00,2013-04-23 23:10:00,
2013-04-23 18:15:00,74.9,64.1,29.88,SSE,148,7.0,12.0,69,0.00,,---,0.00,239.00,VWS V14.00,2013-04-23 23:15:00,
2013-04-23 18:20:00,74.9,64.1,29.88,SSE,152,5.0,12.0,69,0.00,,---,0.00,146.00,VWS V14.00,2013-04-23 23:20:00,
2013-04-23 18:25:00,75.0,63.7,29.88,SSE,162,0.0,12.0,68,0.00,,---,0.00,132.00,VWS V14.00,2013-04-23 23:25:00,
2013-04-23 18:30:00,74.9,63.6,29.88,South,176,3.0,15.0,68,0.00,,---,0.00,62.00,VWS V14.00,2013-04-23 23:30:00,
2013-04-23 18:35:00,74.6,63.8,29.88,South,180,0.0,15.0,69,0.00,,---,0.00,83.00,VWS V14.00,2013-04-23 23:35:00,
2013-04-23 18:40:00,74.4,63.6,29.87,SSE,159,3.0,15.0,69,0.00,,---,0.00,60.00,VWS V14.00,2013-04-23 23:40:00,
2013-04-23 18:45:00,74.1,63.3,29.88,SSE,163,0.0,15.0,69,0.00,,---,0.00,58.00,VWS V14.00,2013-04-23 23:45:00,
2013-04-23 18:50:00,74.0,63.2,29.87,South,177,0.0,15.0,69,0.00,,---,0.00,107.00,VWS V14.00,2013-04-23 23:50:00,
2013-04-23 18:55:00,73.9,63.1,29.88,SSE,163,5.0,15.0,69,0.00,,---,0.00,65.00,VWS V14.00,2013-04-23 23:55:00,
2013-04-23 19:00:00,73.7,62.9,29.88,SSE,147,0.0,7.0,69,0.00,,---,0.00,49.00,VWS V14.00,2013-04-24 00:00:00,
2013-04-23 19:05:00,73.5,63.1,29.88,SSE,157,0.0,7.0,70,0.00,,---,0.00,28.00,VWS V14.00,2013-04-24 00:05:00,
2013-04-23 19:10:00,73.3,63.3,29.88,SSE,157,0.0,7.0,71,0.00,,---,0.00,23.00,VWS V14.00,2013-04-24 00:10:00,
2013-04-23 19:15:00,73.1,63.2,29.88,SSE,157,0.0,7.0,71,0.00,,---,0.00,12.00,VWS V14.00,2013-04-24 00:15:00,
2013-04-23 19:20:00,73.0,63.0,29.88,South,169,0.0,7.0,71,0.00,,---,0.00,11.00,VWS V14.00,2013-04-24 00:20:00,
2013-04-23 19:25:00,72.9,63.0,29.88,SE,132,0.0,7.0,71,0.00,,---,0.00,9.00,VWS V14.00,2013-04-24 00:25:00,
2013-04-23 19:30:00,72.8,63.3,29.88,South,177,0.0,1.0,72,0.00,,---,0.00,7.00,VWS V14.00,2013-04-24 00:30:00,
2013-04-23 19:35:00,72.7,63.2,29.88,SSE,155,0.0,7.0,72,0.00,,---,0.00,0.00,VWS V14.00,2013-04-24 00:35:00,
2013-04-23 19:39:00,72.5,63.4,29.89,SSE,166,0.0,7.0,73,0.00,,---,0.00,0.00,VWS V14.00,2013-04-24 00:39:00,
2013-04-23 19:44:00,72.4,63.3,29.89,SE,137,0.0,7.0,73,0.00,,---,0.00,0.00,VWS V14.00,2013-04-24 00:44:00,
2013-04-23 19:49:00,72.3,63.2,29.89,SE,142,0.0,8.0,73,0.00,,---,0.00,0.00,VWS V14.00,2013-04-24 00:49:00,
2013-04-23 19:54:00,72.1,63.0,29.89,SSE,159,0.0,8.0,73,0.00,,---,0.00,0.00,VWS V14.00,2013-04-24 00:54:00,
2013-04-23 19:59:00,72.0,62.9,29.89,SE,137,0.0,3.0,73,0.00,,---,0.00,0.00,VWS V14.00,2013-04-24 00:59:00,
2013-04-23 20:00:00,72.1,63.4,29.89,SE,145,0.0,8.0,74,0.00,,---,0.00,0.00,VWS V14.00,2013-04-24 01:00:00,
2013-04-23 20:04:00,71.8,63.1,29.89,SSE,168,0.0,3.0,74,0.00,,---,0.00,0.00,VWS V14.00,2013-04-24 01:04:00,
2013-04-23 20:09:00,71.7,63.0,29.89,SE,140,0.0,6.0,74,0.00,,---,0.00,0.00,VWS V14.00,2013-04-24 01:09:00,
2013-04-23 20:14:00,71.5,62.8,29.89,SE,144,0.0,6.0,74,0.00,,---,0.00,0.00,VWS V14.00,2013-04-24 01:14:00,
2013-04-23 20:19:00,71.3,63.0,29.89,SSE,147,6.0,6.0,75,0.00,,---,0.00,0.00,VWS V14.00,2013-04-24 01:19:00,
2013-04-23 20:24:00,71.2,62.5,29.89,SE,132,0.0,7.0,74,0.00,,---,0.00,0.00,VWS V14.00,2013-04-24 01:24:00,
2013-04-23 20:29:00,71.2,62.9,29.89,SSE,161,0.0,0.0,75,0.00,,---,0.00,0.00,VWS V14.00,2013-04-24 01:29:00,
2013-04-23 20:30:00,71.2,62.9,29.89,South,175,0.0,7.0,75,0.00,,---,0.00,0.00,VWS V14.00,2013-04-24 01:30:00,
2013-04-23 20:34:00,71.0,62.7,29.89,SSE,167,0.0,7.0,75,0.00,,---,0.00,0.00,VWS V14.00,2013-04-24 01:34:00,
2013-04-23 20:39:00,70.9,62.6,29.89,SE,134,0.0,7.0,75,0.00,,---,0.00,0.00,VWS V14.00,2013-04-24 01:39:00,
2013-04-23 20:44:00,70.7,62.8,29.90,SE,135,0.0,7.0,76,0.00,,---,0.00,0.00,VWS V14.00,2013-04-24 01:44:00,
2013-04-23 20:49:00,70.6,62.7,29.89,SSE,161,0.0,7.0,76,0.00,,---,0.00,0.00,VWS V14.00,2013-04-24 01:49:00,
2013-04-23 20:54:00,70.4,62.5,29.90,SE,141,0.0,7.0,76,0.00,,---,0.00,0.00,VWS V14.00,2013-04-24 01:54:00,
2013-04-23 20:59:00,70.3,62.8,29.89,SE,136,0.0,1.0,77,0.00,,---,0.00,0.00,VWS V14.00,2013-04-24 01:59:00,
2013-04-23 21:00:00,70.4,62.8,29.90,SSE,159,0.0,7.0,77,0.00,,---,0.00,0.00,VWS V14.00,2013-04-24 02:00:00,
2013-04-23 21:04:00,70.3,62.8,29.90,SE,142,0.0,4.0,77,0.00,,---,0.00,0.00,VWS V14.00,2013-04-24 02:04:00,
2013-04-23 21:09:00,70.2,62.7,29.90,SSE,153,0.0,4.0,77,0.00,,---,0.00,0.00,VWS V14.00,2013-04-24 02:09:00,
2013-04-23 21:15:00,70.2,62.7,29.90,South,173,0.0,7.0,77,0.00,,---,0.00,0.00,VWS V14.00,2013-04-24 02:15:00,
2013-04-23 21:20:00,70.1,62.9,29.90,SSE,158,0.0,7.0,78,0.00,,---,0.00,0.00,VWS V14.00,2013-04-24 02:20:00,
2013-04-23 21:25:00,70.1,62.9,29.90,SSE,148,0.0,7.0,78,0.00,,---,0.00,0.00,VWS V14.00,2013-04-24 02:25:00,
2013-04-23 21:30:00,70.1,62.9,29.90,SSE,157,0.0,0.0,78,0.00,,---,0.00,0.00,VWS V14.00,2013-04-24 02:30:00,
2013-04-23 21:35:00,70.1,62.9,29.91,SSE,153,0.0,1.0,78,0.00,,---,0.00,0.00,VWS V14.00,2013-04-24 02:35:00,
2013-04-23 21:40:00,70.0,62.8,29.91,South,178,4.0,6.0,78,0.00,,---,0.00,0.00,VWS V14.00,2013-04-24 02:40:00,
2013-04-23 21:45:00,69.9,62.7,29.91,SSE,164,0.0,6.0,78,0.00,,---,0.00,0.00,VWS V14.00,2013-04-24 02:45:00,
2013-04-23 21:50:00,69.9,62.7,29.91,SSE,166,0.0,6.0,78,0.00,,---,0.00,0.00,VWS V14.00,2013-04-24 02:50:00,
2013-04-23 21:55:00,69.9,62.7,29.91,SE,132,6.0,7.0,78,0.00,,---,0.00,0.00,VWS V14.00,2013-04-24 02:55:00,
2013-04-23 22:00:00,69.9,62.7,29.91,SSE,159,0.0,0.0,78,0.00,,---,0.00,0.00,VWS V14.00,2013-04-24 03:00:00,
2013-04-23 22:05:00,69.8,62.6,29.91,SSE,150,0.0,0.0,78,0.00,,---,0.00,0.00,VWS V14.00,2013-04-24 03:05:00,
2013-04-23 22:10:00,69.8,63.0,29.91,SSE,157,0.0,1.0,79,0.00,,---,0.00,0.00,VWS V14.00,2013-04-24 03:10:00,
2013-04-23 22:15:00,69.7,62.9,29.91,South,175,0.0,1.0,79,0.00,,---,0.00,0.00,VWS V14.00,2013-04-24 03:15:00,
2013-04-23 22:20:00,69.7,62.9,29.91,SE,125,4.0,7.0,79,0.00,,---,0.00,0.00,VWS V14.00,2013-04-24 03:20:00,
2013-04-23 22:25:00,69.6,62.8,29.90,SSE,151,0.0,7.0,79,0.00,,---,0.00,0.00,VWS V14.00,2013-04-24 03:25:00,
2013-04-23 22:30:00,69.7,62.9,29.90,SSE,151,0.0,7.0,79,0.00,,---,0.00,0.00,VWS V14.00,2013-04-24 03:30:00,
2013-04-23 22:31:00,69.6,62.8,29.90,SSE,159,0.0,0.0,79,0.00,,---,0.00,0.00,VWS V14.00,2013-04-24 03:31:00,
2013-04-23 22:36:00,69.4,62.6,29.90,SSE,163,0.0,7.0,79,0.00,,---,0.00,0.00,VWS V14.00,2013-04-24 03:36:00,
2013-04-23 22:41:00,69.4,63.0,29.90,SE,134,0.0,9.0,80,0.00,,---,0.00,0.00,VWS V14.00,2013-04-24 03:41:00,
2013-04-23 22:46:00,69.4,63.0,29.90,SE,146,0.0,9.0,80,0.00,,---,0.00,0.00,VWS V14.00,2013-04-24 03:46:00,
2013-04-23 22:51:00,69.2,62.8,29.90,SSE,163,4.0,9.0,80,0.00,,---,0.00,0.00,VWS V14.00,2013-04-24 03:51:00,
2013-04-23 22:56:00,69.2,62.8,29.90,SSE,150,0.0,9.0,80,0.00,,---,0.00,0.00,VWS V14.00,2013-04-24 03:56:00,
2013-04-23 23:00:00,69.2,62.8,29.90,SSE,150,0.0,9.0,80,0.00,,---,0.00,0.00,VWS V14.00,2013-04-24 04:00:00,
2013-04-23 23:01:00,69.1,62.7,29.90,SSE,157,0.0,7.0,80,0.00,,---,0.00,0.00,VWS V14.00,2013-04-24 04:01:00,
2013-04-23 23:06:00,69.0,62.9,29.89,SSE,158,0.0,7.0,81,0.00,,---,0.00,0.00,VWS V14.00,2013-04-24 04:06:00,
2013-04-23 23:11:00,69.0,62.9,29.89,SSE,154,0.0,7.0,81,0.00,,---,0.00,0.00,VWS V14.00,2013-04-24 04:11:00,
2013-04-23 23:16:00,69.1,63.0,29.89,SSE,153,0.0,7.0,81,0.00,,---,0.00,0.00,VWS V14.00,2013-04-24 04:16:00,
2013-04-23 23:21:00,69.1,63.0,29.88,SE,141,4.0,7.0,81,0.00,,---,0.00,0.00,VWS V14.00,2013-04-24 04:21:00,
2013-04-23 23:26:00,69.0,62.9,29.88,SSE,155,1.0,7.0,81,0.00,,---,0.00,0.00,VWS V14.00,2013-04-24 04:26:00,
2013-04-23 23:30:00,69.1,63.0,29.88,SSE,149,3.0,7.0,81,0.00,,---,0.00,0.00,VWS V14.00,2013-04-24 04:30:00,
2013-04-23 23:31:00,69.0,62.9,29.89,SSE,153,0.0,9.0,81,0.00,,---,0.00,0.00,VWS V14.00,2013-04-24 04:31:00,
2013-04-23 23:36:00,69.1,63.0,29.89,SSE,163,0.0,9.0,81,0.00,,---,0.00,0.00,VWS V14.00,2013-04-24 04:36:00,
2013-04-23 23:41:00,69.1,63.0,29.89,SSW,192,0.0,9.0,81,0.00,,---,0.00,0.00,VWS V14.00,2013-04-24 04:41:00,
2013-04-23 23:46:00,69.1,63.0,29.88,SSE,150,4.0,9.0,81,0.00,,---,0.00,0.00,VWS V14.00,2013-04-24 04:46:00,
2013-04-23 23:51:00,69.2,63.1,29.88,SSE,154,0.0,9.0,81,0.00,,---,0.00,0.00,VWS V14.00,2013-04-24 04:51:00,
2013-04-23 23:56:00,69.2,63.1,29.88,SSE,154,0.0,9.0,81,0.00,,---,0.00,0.00,VWS V14.00,2013-04-24 04:56:00,